When you browse on this site, cookies collect data to enhance your experience and personalize the content and advertising you see.
Visit our Privacy Policy to learn more. By continuing to use the site, you agree to this use of cookies and data.
  • In Austria
  • List of Countries
  • For 7 days
  • Water Temperature
  • Satellite Maps
  • Weather Map
  • News
  • Weather Widgets
  • user-avatar
    Login

    Hourly Weather Vinnitsa

    Today, 21 July, Sunday

    Time Temperature Precipitation Wind Pressure Humidity
    00:00 +18°C° 0.1 mm 1 mps 738 mmHg 83%
    01:00 +18°C° 0.1 mm 1 mps 738 mmHg 84%
    02:00 +18°C° 0 mm 1 mps 738 mmHg 84%
    03:00 +18°C° 0.1 mm 1 mps 738 mmHg 84%
    04:00 +18°C° 0.1 mm 1 mps 737 mmHg 84%
    05:00 +16°C° 0.1 mm 1 mps 737 mmHg 83%
    06:00 +19°C° 0 mm 1 mps 737 mmHg 78%
    07:00 +21°C° 0 mm 1 mps 737 mmHg 74%
    08:00 +23°C° 0 mm 1 mps 738 mmHg 69%
    09:00 +24°C° 0.3 mm 1 mps 738 mmHg 65%
    10:00 +25°C° 0.3 mm 1 mps 738 mmHg 61%
    11:00 +27°C° 0.3 mm 2 mps 738 mmHg 57%
    12:00 +27°C° 0.3 mm 2 mps 738 mmHg 55%
    13:00 +28°C° 0.3 mm 2 mps 738 mmHg 53%
    14:00 +28°C° 0.3 mm 2 mps 738 mmHg 51%
    15:00 +28°C° 0.1 mm 2 mps 738 mmHg 53%
    16:00 +28°C° 0.1 mm 2 mps 738 mmHg 55%
    17:00 +27°C° 0.1 mm 2 mps 738 mmHg 57%
    18:00 +26°C° 0.1 mm 2 mps 737 mmHg 64%
    19:00 +24°C° 0.1 mm 1 mps 737 mmHg 71%
    20:00 +22°C° 0.1 mm 1 mps 737 mmHg 77%
    21:00 +22°C° 0 mm 1 mps 737 mmHg 79%
    22:00 +21°C° 0 mm 1 mps 737 mmHg 81%
    23:00 +18°C° 0 mm 0 mps 737 mmHg 83%

    Tomorrow, 22 July, Monday

    Time Temperature Precipitation Wind Pressure Humidity
    00:00 +20°C° 0 mm 1 mps 737 mmHg 83%
    01:00 +20°C° 0 mm 1 mps 737 mmHg 83%
    02:00 +20°C° 0 mm 1 mps 737 mmHg 83%
    03:00 +19°C° 0.1 mm 2 mps 737 mmHg 85%
    04:00 +18°C° 0.1 mm 2 mps 737 mmHg 87%
    05:00 +18°C° 0.1 mm 2 mps 736 mmHg 88%
    06:00 +19°C° 0.4 mm 3 mps 736 mmHg 87%
    07:00 +20°C° 0.4 mm 3 mps 737 mmHg 86%
    08:00 +20°C° 0.4 mm 4 mps 737 mmHg 85%
    09:00 +21°C° 0 mm 4 mps 737 mmHg 84%
    10:00 +21°C° 0 mm 5 mps 737 mmHg 82%
    11:00 +22°C° 0 mm 5 mps 737 mmHg 80%
    12:00 +23°C° 0 mm 5 mps 737 mmHg 75%
    13:00 +25°C° 0 mm 5 mps 737 mmHg 70%
    14:00 +27°C° 0 mm 5 mps 737 mmHg 65%
    15:00 +26°C° 0.1 mm 5 mps 737 mmHg 66%
    16:00 +26°C° 0.1 mm 5 mps 737 mmHg 67%
    17:00 +25°C° 0.1 mm 5 mps 737 mmHg 69%
    18:00 +23°C° 0 mm 5 mps 737 mmHg 74%
    19:00 +22°C° 0 mm 4 mps 737 mmHg 79%
    20:00 +20°C° 0 mm 4 mps 737 mmHg 84%
    21:00 +19°C° 0 mm 3 mps 737 mmHg 85%
    22:00 +19°C° 0 mm 3 mps 737 mmHg 86%
    23:00 +18°C° 0 mm 3 mps 737 mmHg 88%

    Day after tomorrow, 23 July, Tuesday

    Time Temperature Precipitation Wind Pressure Humidity
    00:00 +18°C° 0 mm 3 mps 737 mmHg 88%
    01:00 +17°C° 0 mm 3 mps 737 mmHg 88%
    02:00 +17°C° 0 mm 3 mps 736 mmHg 87%
    03:00 +17°C° 0 mm 3 mps 736 mmHg 89%
    04:00 +16°C° 0 mm 3 mps 736 mmHg 91%
    05:00 +16°C° 0 mm 3 mps 736 mmHg 92%
    06:00 +17°C° 0 mm 3 mps 736 mmHg 87%
    07:00 +18°C° 0 mm 4 mps 736 mmHg 81%
    08:00 +19°C° 0 mm 4 mps 736 mmHg 76%
    09:00 +20°C° 0 mm 5 mps 736 mmHg 71%
    10:00 +21°C° 0 mm 5 mps 736 mmHg 66%
    11:00 +22°C° 0 mm 5 mps 736 mmHg 60%
    12:00 +22°C° 0 mm 5 mps 736 mmHg 59%
    13:00 +23°C° 0 mm 5 mps 736 mmHg 57%
    14:00 +23°C° 0 mm 5 mps 736 mmHg 55%
    15:00 +23°C° 0 mm 5 mps 736 mmHg 57%
    16:00 +22°C° 0 mm 5 mps 736 mmHg 60%
    17:00 +22°C° 0 mm 5 mps 736 mmHg 62%
    18:00 +21°C° 0 mm 4 mps 735 mmHg 67%
    19:00 +19°C° 0 mm 4 mps 735 mmHg 71%
    20:00 +18°C° 0 mm 3 mps 735 mmHg 76%
    21:00 +18°C° 0.1 mm 3 mps 735 mmHg 78%
    22:00 +17°C° 0.1 mm 3 mps 735 mmHg 79%
    23:00 +17°C° 0.1 mm 2 mps 735 mmHg 81%

    24 July, Wednesday

    Time Temperature Precipitation Wind Pressure Humidity
    00:00 +17°C° 0.3 mm 2 mps 735 mmHg 85%
    01:00 +16°C° 0.3 mm 3 mps 735 mmHg 89%
    02:00 +14°C° 0.3 mm 3 mps 735 mmHg 94%
    03:00 +14°C° 0.1 mm 3 mps 735 mmHg 95%
    04:00 +14°C° 0.1 mm 3 mps 734 mmHg 96%
    05:00 +14°C° 0.1 mm 3 mps 734 mmHg 97%
    06:00 +16°C° 0 mm 3 mps 735 mmHg 93%
    07:00 +17°C° 0 mm 3 mps 735 mmHg 90%
    08:00 +18°C° 0 mm 3 mps 735 mmHg 86%
    09:00 +19°C° 0.1 mm 4 mps 735 mmHg 82%
    10:00 +20°C° 0.1 mm 4 mps 735 mmHg 77%
    11:00 +21°C° 0.1 mm 4 mps 735 mmHg 73%
    12:00 +21°C° 0.2 mm 5 mps 735 mmHg 71%
    13:00 +22°C° 0.2 mm 5 mps 735 mmHg 69%
    14:00 +23°C° 0.2 mm 5 mps 735 mmHg 67%
    15:00 +23°C° 0.7 mm 5 mps 734 mmHg 68%
    16:00 +23°C° 0.7 mm 5 mps 734 mmHg 70%
    17:00 +23°C° 0.7 mm 5 mps 734 mmHg 71%
    18:00 +22°C° 0.4 mm 5 mps 734 mmHg 76%
    19:00 +20°C° 0.4 mm 4 mps 734 mmHg 80%
    20:00 +19°C° 0.4 mm 4 mps 734 mmHg 85%
    21:00 +19°C° 0 mm 4 mps 735 mmHg 87%
    22:00 +18°C° 0 mm 4 mps 735 mmHg 89%
    23:00 +17°C° 0 mm 3 mps 735 mmHg 91%

    25 July, Thursday

    Time Temperature Precipitation Wind Pressure Humidity
    00:00 +17°C° 0 mm 4 mps 735 mmHg 92%
    01:00 +17°C° 0 mm 4 mps 735 mmHg 93%
    02:00 +17°C° 0 mm 4 mps 735 mmHg 94%
    03:00 +15°C° 0 mm 4 mps 735 mmHg 94%
    04:00 +15°C° 0 mm 4 mps 735 mmHg 95%
    05:00 +15°C° 0 mm 4 mps 736 mmHg 95%
    06:00 +16°C° 0 mm 5 mps 736 mmHg 90%
    07:00 +19°C° 0 mm 6 mps 736 mmHg 85%
    08:00 +20°C° 0 mm 6 mps 736 mmHg 81%
    09:00 +21°C° 0 mm 6 mps 737 mmHg 75%
    10:00 +22°C° 0 mm 7 mps 737 mmHg 69%
    11:00 +24°C° 0 mm 7 mps 737 mmHg 63%
    12:00 +24°C° 0 mm 7 mps 737 mmHg 61%
    13:00 +26°C° 0 mm 7 mps 737 mmHg 59%
    14:00 +26°C° 0 mm 7 mps 736 mmHg 57%
    15:00 +26°C° 0 mm 7 mps 736 mmHg 58%
    16:00 +26°C° 0 mm 6 mps 736 mmHg 59%
    17:00 +24°C° 0 mm 6 mps 736 mmHg 60%
    18:00 +23°C° 0 mm 5 mps 736 mmHg 64%
    19:00 +22°C° 0 mm 5 mps 736 mmHg 67%
    20:00 +20°C° 0 mm 4 mps 736 mmHg 71%
    21:00 +19°C° 0 mm 4 mps 737 mmHg 72%
    22:00 +19°C° 0 mm 4 mps 737 mmHg 73%
    23:00 +18°C° 0 mm 3 mps 737 mmHg 75%

    26 July, Friday

    Time Temperature Precipitation Wind Pressure Humidity
    00:00 +17°C° 0 mm 3 mps 737 mmHg 78%
    01:00 +17°C° 0 mm 3 mps 737 mmHg 82%
    02:00 +16°C° 0 mm 3 mps 736 mmHg 86%
    03:00 +16°C° 0 mm 3 mps 736 mmHg 87%
    04:00 +15°C° 0 mm 4 mps 736 mmHg 88%
    05:00 +14°C° 0 mm 4 mps 736 mmHg 89%
    06:00 +17°C° 0 mm 4 mps 736 mmHg 85%
    07:00 +19°C° 0 mm 4 mps 736 mmHg 80%
    08:00 +20°C° 0 mm 5 mps 736 mmHg 76%
    09:00 +22°C° 0 mm 5 mps 736 mmHg 72%
    10:00 +23°C° 0 mm 5 mps 736 mmHg 67%
    11:00 +25°C° 0 mm 5 mps 737 mmHg 63%
    12:00 +25°C° 0.4 mm 5 mps 736 mmHg 66%
    13:00 +25°C° 0.4 mm 5 mps 736 mmHg 68%
    14:00 +25°C° 0.4 mm 5 mps 736 mmHg 71%
    15:00 +25°C° 0.2 mm 5 mps 736 mmHg 70%
    16:00 +25°C° 0.2 mm 5 mps 736 mmHg 69%
    17:00 +25°C° 0.2 mm 5 mps 736 mmHg 69%
    18:00 +23°C° 0.2 mm 4 mps 736 mmHg 75%
    19:00 +21°C° 0.2 mm 3 mps 736 mmHg 82%
    20:00 +20°C° 0.2 mm 3 mps 736 mmHg 89%
    21:00 +19°C° 0 mm 2 mps 736 mmHg 90%
    22:00 +19°C° 0 mm 2 mps 736 mmHg 91%
    23:00 +18°C° 0 mm 2 mps 736 mmHg 93%
    Show more